This is the latest recevied weather packets stored in our database for station/object IU3NMQ-10. If no packets are shown the sender has not sent any weather packets the latest 10 day(s).
| Time | Temp. | Humidity | Pressure | Rain* | Wind** | Luminosity | Snow |
|---|---|---|---|---|---|---|---|
| 1777971702 | 19.44° C | 68% | 1011.8 hPa | - | - | - | - |
| 1777970847 | 19.44° C | 68% | 1011.7 hPa | - | - | - | - |
| 1777970802 | 19.44° C | 68% | 1011.7 hPa | - | - | - | - |
| 1777969902 | 19.44° C | 68% | 1011.6 hPa | - | - | - | - |
| 1777969002 | 19.44° C | 68% | 1011.3 hPa | - | - | - | - |
| 1777968102 | 19.44° C | 66% | 1011.3 hPa | - | - | - | - |
| 1777967202 | 19.44° C | 64% | 1011.2 hPa | - | - | - | - |
| 1777966302 | 19.44° C | 64% | 1011.1 hPa | - | - | - | - |
| 1777965401 | 18.89° C | 67% | 1011.2 hPa | - | - | - | - |
| 1777964501 | 18.89° C | 68% | 1011.1 hPa | - | - | - | - |
| 1777963601 | 19.44° C | 68% | 1011.2 hPa | - | - | - | - |
| 1777962701 | 18.89° C | 68% | 1011 hPa | - | - | - | - |
| 1777961801 | 18.89° C | 69% | 1011 hPa | - | - | - | - |
| 1777960901 | 18.89° C | 69% | 1011 hPa | - | - | - | - |
| 1777960001 | 18.33° C | 69% | 1010.8 hPa | - | - | - | - |
| 1777959101 | 17.78° C | 71% | 1010.7 hPa | - | - | - | - |
| 1777958201 | 17.78° C | 72% | 1010.6 hPa | - | - | - | - |
| 1777957301 | 17.22° C | 72% | 1010.7 hPa | - | - | - | - |
| 1777956400 | 17.22° C | 73% | 1010.8 hPa | - | - | - | - |
| 1777955500 | 17.22° C | 75% | 1010.8 hPa | - | - | - | - |
| 1777954600 | 17.22° C | 73% | 1010.8 hPa | - | - | - | - |
| 1777953700 | 17.22° C | 73% | 1010.7 hPa | - | - | - | - |
| 1777952800 | 17.22° C | 72% | 1010.7 hPa | - | - | - | - |
| 1777951900 | 17.22° C | 71% | 1010.9 hPa | - | - | - | - |
| 1777951000 | 16.67° C | 71% | 1010.9 hPa | - | - | - | - |
* Rain since midnight (hover to see other rain measurements)
** Current wind speed in m/s (hover to see current wind gust speed)